Location: Newark
(34.9500°N, 139.9667°E)
Time: 10:20:21
(UTC+00:00)

Vanguard 3 - All Passes

Search period start: 15 December 2019 00:00
Search period end: 25 December 2019 00:00
Orbit: 508 x 3263 km, 33.3° (Epoch: 14 December)

Date Brightness Start Highest point End Pass type
(mag) Time Alt. Az. Time Alt. Az. Time Alt. Az.
15 Dec - 00:30:59 10° W 00:40:06 77° S 00:56:25 10° ESE daylight
15 Dec - 02:43:03 10° W 02:54:57 51° SSW 03:12:52 10° SE daylight
15 Dec - 04:58:33 10° W 05:10:13 24° SW 05:23:58 10° S daylight
15 Dec - 18:59:09 10° S 19:01:42 15° SE 19:04:47 10° ESE visible
15 Dec - 21:07:05 10° WSW 21:12:18 61° SSE 21:21:27 10° E visible
15 Dec - 23:17:33 10° W 23:24:56 82° S 23:38:41 10° E daylight
16 Dec - 01:28:53 10° W 01:39:03 62° SSW 01:56:10 10° SE daylight
16 Dec - 03:42:08 10° W 03:54:05 34° SSW 04:10:10 10° SSE daylight
16 Dec - 06:06:10 10° SW 06:09:13 11° SW 06:12:21 10° SSW daylight
16 Dec - 19:54:33 10° SW 19:58:42 36° SSE 20:05:04 10° E visible
16 Dec - 22:04:22 10° W 22:10:20 79° S 22:21:17 10° E daylight
17 Dec - 00:15:14 10° W 00:23:36 72° SSW 00:38:49 10° ESE daylight
17 Dec - 02:27:11 10° W 02:38:04 45° SSW 02:54:45 10° SE daylight
17 Dec - 04:43:17 10° WSW 04:53:09 19° SW 05:04:52 10° S daylight
17 Dec - 18:42:52 10° S 18:45:32 17° SE 18:48:48 10° ESE visible
17 Dec - 20:51:25 10° WSW 20:56:15 65° SSE 21:04:33 10° E visible
17 Dec - 23:01:54 10° W 23:08:41 79° S 23:21:19 10° ESE daylight
18 Dec - 01:13:06 10° W 01:22:24 56° SSW 01:38:17 10° SE daylight
18 Dec - 03:26:29 10° W 03:37:08 29° SSW 03:51:36 10° SSE daylight
18 Dec - 19:38:45 10° SW 19:42:41 40° SSE 19:48:32 10° E visible
18 Dec - 21:48:46 10° W 21:54:16 80° S 22:04:11 10° E daylight
18 Dec - 23:59:31 10° W 00:07:12 66° SSW 00:21:12 10° ESE daylight
19 Dec - 02:11:28 10° W 02:21:19 38° SSW 02:36:30 10° SSE daylight
19 Dec - 04:28:45 10° WSW 04:36:16 15° SW 04:45:01 10° S daylight
19 Dec - 18:26:39 10° SSW 18:29:28 19° SSE 18:32:50 10° E visible
19 Dec - 20:35:48 10° WSW 20:40:18 68° SSE 20:47:47 10° E visible
19 Dec - 22:46:16 10° W 22:52:31 75° S 23:04:01 10° ESE daylight
20 Dec - 00:57:24 10° W 01:05:52 49° SSW 01:20:20 10° SE daylight
20 Dec - 03:11:10 10° WSW 03:20:22 23° SSW 03:32:42 10° SSE daylight
20 Dec - 19:22:59 10° SW 19:26:44 44° SSE 19:32:06 10° E visible
20 Dec - 21:33:11 10° W 21:38:16 79° S 21:47:14 10° E daylight
20 Dec - 23:43:53 10° W 23:50:54 59° SSW 00:03:36 10° ESE daylight
21 Dec - 01:55:56 10° W 02:04:44 32° SSW 02:18:05 10° SSE daylight
21 Dec - 04:16:12 10° SW 04:19:33 11° SW 04:23:08 10° SSW daylight
21 Dec - 18:10:31 10° SSW 18:13:29 22° SSE 18:16:54 10° E visible
21 Dec - 20:20:11 10° WSW 20:24:24 71° S 20:31:07 10° E visible
21 Dec - 22:30:41 10° W 22:36:25 70° S 22:46:48 10° ESE daylight
22 Dec - 00:41:49 10° W 00:49:28 41° SSW 01:02:19 10° SE daylight
22 Dec - 02:56:17 10° WSW 03:03:44 18° SSW 03:13:21 10° S daylight
22 Dec - 19:07:13 10° WSW 19:10:53 49° SSE 19:15:48 10° E visible
22 Dec - 21:17:37 10° W 21:22:20 77° S 21:30:21 10° E visible
22 Dec - 23:28:18 10° W 23:34:41 51° SSW 23:46:01 10° SE daylight
23 Dec - 01:40:38 10° WSW 01:48:15 26° SSW 01:59:28 10° SSE daylight
23 Dec - 17:54:25 10° SW 17:57:33 27° SSE 18:01:01 10° E visible
23 Dec - 20:04:33 10° W 20:08:33 73° S 20:14:35 10° E visible
23 Dec - 22:15:06 10° W 22:20:22 63° SSW 22:29:39 10° ESE daylight
24 Dec - 00:26:21 10° W 00:33:11 34° SSW 00:44:15 10° SE daylight
24 Dec - 02:42:19 10° SW 02:47:16 13° SSW 02:53:09 10° S daylight
24 Dec - 16:42:10 10° S 16:44:12 14° SSE 16:46:08 10° ESE night (unlit)
24 Dec - 18:51:27 10° WSW 18:55:03 55° SSE 18:59:35 10° E visible
24 Dec - 21:02:02 10° W 21:06:26 72° S 21:13:36 10° ESE visible
24 Dec - 23:12:46 10° W 23:18:34 43° SSW 23:28:27 10° SE daylight
